When you browse on this site, cookies collect data to enhance your experience and personalize the content and advertising you see.
Visit our Privacy Policy to learn more. By continuing to use the site, you agree to this use of cookies and data.
  • In Lithuania
  • List of Countries
  • For 7 days
  • Water Temperature
  • Weather Map
  • Weather Widgets
  • user-avatar
    Login

    Hourly Weather Gorki

    Today, 25 August, Sunday

    Time Temperature Precipitation Wind Pressure Humidity
    00:00 +16°C° 0 mm 1 mps 756 mmHg 68%
    01:00 +16°C° 0 mm 1 mps 756 mmHg 70%
    02:00 +15°C° 0 mm 1 mps 756 mmHg 72%
    03:00 +15°C° 0 mm 1 mps 756 mmHg 74%
    04:00 +14°C° 0 mm 1 mps 756 mmHg 76%
    05:00 +14°C° 0 mm 1 mps 756 mmHg 78%
    06:00 +15°C° 0 mm 2 mps 756 mmHg 75%
    07:00 +17°C° 0 mm 2 mps 756 mmHg 72%
    08:00 +18°C° 0 mm 2 mps 756 mmHg 68%
    09:00 +20°C° 0 mm 3 mps 757 mmHg 62%
    10:00 +22°C° 0 mm 3 mps 757 mmHg 57%
    11:00 +25°C° 0 mm 3 mps 757 mmHg 51%
    12:00 +25°C° 0 mm 3 mps 757 mmHg 48%
    13:00 +26°C° 0 mm 3 mps 757 mmHg 45%
    14:00 +27°C° 0 mm 3 mps 756 mmHg 43%
    15:00 +26°C° 0 mm 3 mps 756 mmHg 45%
    16:00 +26°C° 0 mm 3 mps 756 mmHg 48%
    17:00 +26°C° 0 mm 3 mps 755 mmHg 51%
    18:00 +24°C° 0 mm 3 mps 756 mmHg 57%
    19:00 +21°C° 0 mm 3 mps 756 mmHg 64%
    20:00 +19°C° 0 mm 3 mps 756 mmHg 70%
    21:00 +18°C° 0 mm 3 mps 756 mmHg 72%
    22:00 +18°C° 0 mm 3 mps 756 mmHg 74%
    23:00 +17°C° 0 mm 3 mps 756 mmHg 77%

    Tomorrow, 26 August, Monday

    Time Temperature Precipitation Wind Pressure Humidity
    00:00 +17°C° 0 mm 3 mps 756 mmHg 79%
    01:00 +16°C° 0 mm 3 mps 756 mmHg 82%
    02:00 +16°C° 0 mm 3 mps 756 mmHg 85%
    03:00 +15°C° 0 mm 2 mps 756 mmHg 85%
    04:00 +15°C° 0 mm 2 mps 756 mmHg 86%
    05:00 +15°C° 0 mm 2 mps 755 mmHg 86%
    06:00 +16°C° 0 mm 3 mps 755 mmHg 80%
    07:00 +17°C° 0 mm 3 mps 756 mmHg 75%
    08:00 +19°C° 0 mm 3 mps 756 mmHg 69%
    09:00 +21°C° 0 mm 4 mps 756 mmHg 63%
    10:00 +23°C° 0 mm 4 mps 756 mmHg 58%
    11:00 +26°C° 0 mm 4 mps 756 mmHg 53%
    12:00 +26°C° 0 mm 4 mps 755 mmHg 51%
    13:00 +27°C° 0 mm 5 mps 755 mmHg 48%
    14:00 +28°C° 0 mm 5 mps 755 mmHg 46%
    15:00 +28°C° 0 mm 4 mps 755 mmHg 48%
    16:00 +28°C° 0 mm 4 mps 754 mmHg 50%
    17:00 +27°C° 0 mm 4 mps 754 mmHg 51%
    18:00 +26°C° 0 mm 3 mps 754 mmHg 58%
    19:00 +24°C° 0 mm 3 mps 754 mmHg 66%
    20:00 +21°C° 0 mm 3 mps 754 mmHg 73%
    21:00 +20°C° 0 mm 3 mps 754 mmHg 75%
    22:00 +20°C° 0 mm 3 mps 754 mmHg 77%
    23:00 +19°C° 0 mm 3 mps 754 mmHg 79%

    Day after tomorrow, 27 August, Tuesday

    Time Temperature Precipitation Wind Pressure Humidity
    00:00 +19°C° 0 mm 3 mps 754 mmHg 80%
    01:00 +18°C° 0 mm 3 mps 754 mmHg 82%
    02:00 +18°C° 0 mm 3 mps 754 mmHg 83%
    03:00 +17°C° 0 mm 3 mps 754 mmHg 84%
    04:00 +17°C° 0 mm 3 mps 754 mmHg 86%
    05:00 +17°C° 0 mm 3 mps 754 mmHg 88%
    06:00 +18°C° 0 mm 3 mps 754 mmHg 83%
    07:00 +19°C° 0 mm 3 mps 754 mmHg 79%
    08:00 +21°C° 0 mm 4 mps 754 mmHg 74%
    09:00 +23°C° 0 mm 4 mps 754 mmHg 68%
    10:00 +25°C° 0 mm 4 mps 754 mmHg 61%
    11:00 +27°C° 0 mm 4 mps 755 mmHg 55%
    12:00 +28°C° 0 mm 4 mps 755 mmHg 52%
    13:00 +29°C° 0 mm 4 mps 754 mmHg 49%
    14:00 +29°C° 0 mm 3 mps 754 mmHg 46%
    15:00 +29°C° 0 mm 3 mps 754 mmHg 47%
    16:00 +29°C° 0 mm 3 mps 754 mmHg 49%
    17:00 +28°C° 0 mm 3 mps 754 mmHg 50%
    18:00 +26°C° 0 mm 3 mps 754 mmHg 57%
    19:00 +24°C° 0 mm 3 mps 754 mmHg 63%
    20:00 +22°C° 0 mm 3 mps 754 mmHg 70%
    21:00 +21°C° 0 mm 3 mps 754 mmHg 74%
    22:00 +20°C° 0 mm 3 mps 754 mmHg 77%
    23:00 +19°C° 0 mm 3 mps 754 mmHg 81%

    28 August, Wednesday

    Time Temperature Precipitation Wind Pressure Humidity
    00:00 +19°C° 0 mm 3 mps 754 mmHg 83%
    01:00 +18°C° 0 mm 3 mps 754 mmHg 84%
    02:00 +18°C° 0 mm 3 mps 754 mmHg 86%
    03:00 +17°C° 0 mm 3 mps 754 mmHg 87%
    04:00 +17°C° 0 mm 3 mps 754 mmHg 88%
    05:00 +17°C° 0 mm 3 mps 754 mmHg 89%
    06:00 +18°C° 0 mm 3 mps 754 mmHg 83%
    07:00 +19°C° 0 mm 3 mps 754 mmHg 78%
    08:00 +20°C° 0 mm 4 mps 754 mmHg 73%
    09:00 +22°C° 0 mm 4 mps 754 mmHg 67%
    10:00 +25°C° 0 mm 4 mps 754 mmHg 61%
    11:00 +27°C° 0 mm 4 mps 754 mmHg 55%
    12:00 +27°C° 0 mm 4 mps 754 mmHg 53%
    13:00 +28°C° 0 mm 4 mps 753 mmHg 51%
    14:00 +29°C° 0 mm 4 mps 753 mmHg 49%
    15:00 +28°C° 0 mm 4 mps 753 mmHg 50%
    16:00 +28°C° 0 mm 4 mps 753 mmHg 52%
    17:00 +28°C° 0 mm 4 mps 753 mmHg 54%
    18:00 +26°C° 0 mm 4 mps 753 mmHg 60%
    19:00 +23°C° 0 mm 4 mps 752 mmHg 66%
    20:00 +21°C° 0 mm 4 mps 752 mmHg 73%
    21:00 +21°C° 0 mm 4 mps 753 mmHg 72%
    22:00 +20°C° 0 mm 4 mps 753 mmHg 71%
    23:00 +19°C° 0 mm 5 mps 753 mmHg 71%

    29 August, Thursday

    Time Temperature Precipitation Wind Pressure Humidity
    00:00 +19°C° 0 mm 4 mps 753 mmHg 70%
    01:00 +18°C° 0 mm 4 mps 753 mmHg 69%
    02:00 +18°C° 0 mm 4 mps 753 mmHg 68%
    03:00 +17°C° 0 mm 4 mps 753 mmHg 69%
    04:00 +17°C° 0 mm 4 mps 753 mmHg 71%
    05:00 +17°C° 0 mm 4 mps 753 mmHg 72%
    06:00 +17°C° 0 mm 4 mps 752 mmHg 71%
    07:00 +17°C° 0 mm 5 mps 752 mmHg 70%
    08:00 +17°C° 0 mm 5 mps 752 mmHg 69%
    09:00 +20°C° 0 mm 5 mps 753 mmHg 65%
    10:00 +22°C° 0 mm 5 mps 753 mmHg 60%
    11:00 +23°C° 0 mm 6 mps 753 mmHg 56%
    12:00 +24°C° 0 mm 6 mps 753 mmHg 54%
    13:00 +26°C° 0 mm 6 mps 752 mmHg 51%
    14:00 +26°C° 0 mm 6 mps 752 mmHg 49%
    15:00 +26°C° 0 mm 6 mps 752 mmHg 51%
    16:00 +26°C° 0 mm 6 mps 752 mmHg 52%
    17:00 +24°C° 0 mm 6 mps 752 mmHg 54%
    18:00 +23°C° 0 mm 5 mps 752 mmHg 58%
    19:00 +21°C° 0 mm 5 mps 752 mmHg 63%
    20:00 +19°C° 0 mm 5 mps 752 mmHg 68%
    21:00 +19°C° 0 mm 5 mps 752 mmHg 68%
    22:00 +17°C° 0 mm 5 mps 752 mmHg 68%
    23:00 +16°C° 0 mm 5 mps 753 mmHg 68%

    30 August, Friday

    Time Temperature Precipitation Wind Pressure Humidity
    00:00 +15°C° 0 mm 5 mps 753 mmHg 68%
    01:00 +15°C° 0 mm 4 mps 753 mmHg 67%
    02:00 +14°C° 0 mm 4 mps 753 mmHg 66%
    03:00 +13°C° 0 mm 4 mps 753 mmHg 64%
    04:00 +13°C° 0 mm 4 mps 752 mmHg 62%
    05:00 +12°C° 0 mm 4 mps 752 mmHg 59%
    06:00 +13°C° 0 mm 4 mps 752 mmHg 58%
    07:00 +13°C° 0 mm 5 mps 752 mmHg 57%
    08:00 +14°C° 0 mm 5 mps 752 mmHg 57%
    09:00 +16°C° 0 mm 5 mps 753 mmHg 54%
    10:00 +19°C° 0 mm 5 mps 753 mmHg 51%
    11:00 +21°C° 0 mm 5 mps 753 mmHg 48%
    12:00 +22°C° 0 mm 5 mps 753 mmHg 46%
    13:00 +23°C° 0 mm 5 mps 753 mmHg 44%
    14:00 +25°C° 0 mm 5 mps 752 mmHg 42%
    15:00 +25°C° 0 mm 5 mps 752 mmHg 43%
    16:00 +25°C° 0 mm 5 mps 752 mmHg 44%
    17:00 +25°C° 0 mm 5 mps 752 mmHg 45%
    18:00 +22°C° 0 mm 4 mps 752 mmHg 51%
    19:00 +20°C° 0 mm 4 mps 752 mmHg 57%
    20:00 +18°C° 0 mm 3 mps 752 mmHg 63%
    21:00 +17°C° 0 mm 3 mps 752 mmHg 62%
    22:00 +17°C° 0 mm 3 mps 752 mmHg 61%
    23:00 +16°C° 0 mm 3 mps 752 mmHg 61%
    Show more